Temperature
17 17 17 17 17 17 16 16 17 17 17 17 17 17 17 17 17 16 16 17 17 17 17 17 17 17 17 17 17 17 17 17 17 17 17 17 17 17 17 17 18 18 17
17 17 17 17 17 17 17 17 17 17 17 17 17 17 17 17 17 16 16 16 17 17 17 17 17 17 17 17 17 17 17 17 17 17 17 17 17 17 17 17 17 17 17
17 17 17 17 17 17 17 17 17 17 17 17 17 17 17 16 16 16 16 16 16 16 16 16 17 17 17 17 17 17 17 16 16 16 17 17 17 17 17 17 17 17 17
17 17 17 17 17 17 17 17 17 17 17 17 17 17 17 16 16 16 16 16 16 16 16 16 16 16 17 17 17 17 16 16 16 16 16 16 16 16 16 16 16 16 16
17 17 17 17 17 17 17 17 17 17 17 17 17 16 17 16 16 16 16 16 16 16 16 16 16 17 17 17 17 16 16 16 16 16 16 16 16 16 16 16 16 16 16
17 17 17 17 17 17 16 16 16 16 17 16 17 16 16 16 16 16 16 16 16 16 15 15 15 16 17 17 16 16 16 16 16 16 16 16 16 16 16 16 16 16 16
17 17 17 17 17 17 16 16 16 16 16 16 16 16 16 16 17 16 16 16 16 16 16 15 15 15 16 16 16 16 16 16 16 16 16 16 16 16 16 16 16 16 16
18 17 17 17 17 17 16 16 16 16 16 16 16 16 16 17 16 16 16 16 16 16 16 15 15 15 15 15 16 16 16 16 16 16 16 16 16 16 16 16 16 16 16
18 18 17 17 17 17 16 16 16 16 16 16 16 16 16 17 17 17 16 16 16 16 16 16 16 15 15 15 15 16 16 16 16 16 16 16 16 16 16 16 15 15 16
18 18 17 17 17 17 17 16 16 16 16 16 16 16 16 16 16 17 16 16 16 16 16 15 15 15 15 15 15 15 16 16 16 16 16 16 16 16 16 16 15 15 15
18 18 17 17 17 17 17 16 16 16 16 16 16 15 15 15 16 16 16 16 16 16 16 15 15 15 15 15 15 15 16 16 16 16 16 16 16 16 16 16 15 15 15
17 17 17 17 17 16 16 16 16 16 16 16 15 15 15 15 15 15 15 16 16 16 16 15 15 15 15 15 15 15 15 16 16 16 16 16 15 15 15 16 15 15 15
17 17 17 16 16 16 16 16 16 16 16 16 15 15 15 15 15 15 15 15 15 16 16 15 15 15 15 15 15 15 15 15 15 15 15 15 15 15 15 15 15 15 15
16 16 16 16 16 16 16 16 16 16 15 15 15 15 15 14 14 14 14 14 14 15 15 16 16 15 15 15 15 15 15 15 15 15 15 15 15 15 15 15 15 15 15
16 16 16 16 16 16 16 15 15 15 15 15 15 14 14 14 14 14 14 14 14 14 14 15 15 15 15 15 15 15 15 15 15 15 15 15 15 15 15 15 15 15 15
16 16 16 16 15 16 16 15 15 15 15 15 15 15 14 14 14 14 14 14 14 14 14 15 15 15 15 15 16 15 15 15 15 15 15 15 15 15 15 15 15 15 15
16 15 15 15 15 15 15 15 15 15 15 15 14 14 14 14 14 14 14 14 14 14 14 14 14 14 14 15 15 15 15 15 15 15 15 15 15 15 15 15 15 15 15
15 15 15 15 15 15 15 15 15 15 15 14 14 14 14 14 14 14 14 14 14 14 14 14 14 14 14 14 14 15 15 15 15 15 15 15 15 15 15 15 14 14 14
15 15 15 15 15 15 15 15 14 14 14 14 14 14 13 13 14 14 14 14 14 13 13 13 13 14 14 14 14 14 14 14 15 15 15 15 15 15 14 14 14 14 14
15 15 15 15 15 15 15 15 14 14 14 14 14 14 14 13 13 13 13 13 13 13 13 13 13 13 13 13 13 14 14 14 14 14 14 14 14 14 14 14 14 14 14
15 15 15 15 15 15 14 14 14 14 14 14 14 14 14 14 14 14 13 13 13 13 13 13 13 13 13 13 13 13 13 13 14 14 14 14 14 14 14 14 14 14 14
15 15 15 15 15 15 15 15 14 14 14 14 14 14 14 14 14 14 14 14 13 13 13 13 13 13 13 13 13 13 13 13 13 13 13 13 13 14 14 14 14 14 14
15 15 15 15 14 14 15 15 15 14 14 14 14 14 13 14 14 13 13 14 13 13 13 13 13 13 12 12 12 12 12 12 12 13 13 13 13 13 13 13 14 14 14
14 14 14 14 14 14 14 14 14 14 14 14 14 14 13 13 13 13 13 13 13 13 13 13 12 12 12 12 12 12 12 12 12 12 12 12 13 13 13 13 13 13 14
12 13 13 13 13 13 14 14 14 14 13 13 13 13 13 13 14 14 14 13 13 13 13 13 13 13 13 13 12 12 12 12 12 12 12 12 12 12 13 13 13 13 13
12 12 12 12 12 12 13 13 13 13 13 13 13 13 14 13 14 14 14 13 13 13 13 13 13 13 13 13 13 12 12 12 12 12 12 12 12 12 12 12 12 13 13
Wind_Speed
6 6 6 6 6 6 6 4 4 4 3 2 2 1 1 1 0 0 4 5 3 1 1 2 2 2 2 2 2 3 4 5 5 6 7 6 5 4 3 2 2 1 1
7 6 6 6 6 6 5 5 4 3 3 2 2 1 1 1 1 1 2 5 5 4 2 2 2 2 2 2 2 2 3 4 5 6 6 6 6 4 3 2 1 1 0
8 7 6 7 7 8 7 5 4 3 3 3 3 2 1 1 1 2 2 1 5 7 5 4 4 3 3 3 2 2 2 2 4 5 6 6 6 5 4 4 3 2 1
10 7 6 6 7 8 7 5 4 4 4 4 3 3 2 2 1 2 2 3 3 4 7 7 6 4 3 3 2 2 2 2 2 3 4 5 5 5 5 5 5 4 3
11 9 6 6 8 7 7 6 6 5 5 4 3 3 2 2 2 2 2 2 3 2 4 7 6 6 5 3 2 2 2 2 2 1 2 2 3 4 5 5 5 5 5
11 9 6 8 8 7 7 7 7 5 4 5 5 4 4 3 4 3 2 2 3 2 2 2 3 5 5 4 3 2 2 2 1 1 1 1 2 3 4 5 5 5 5
12 10 7 8 8 8 9 10 8 8 7 6 5 5 6 7 6 4 5 5 4 3 4 4 2 2 4 5 4 4 2 2 2 2 1 1 1 1 2 3 4 5 5
12 10 10 8 9 8 10 10 9 7 6 7 6 5 5 7 7 8 6 6 6 5 5 4 5 4 3 3 6 4 4 2 2 2 2 2 1 1 2 2 2 3 3
11 11 11 10 10 10 9 10 11 10 8 8 8 6 5 6 4 6 8 8 7 6 6 6 6 5 4 4 4 6 3 3 2 2 2 2 2 2 2 2 2 3 2
10 11 11 10 10 9 10 10 11 10 10 9 7 7 6 3 3 3 5 8 9 8 8 6 7 7 6 5 2 2 2 0 1 1 1 1 2 2 2 2 3 2 2
8 9 9 9 9 8 9 9 9 11 10 10 9 8 7 5 6 4 4 4 6 8 9 9 7 8 7 7 5 5 5 3 2 1 1 1 1 2 2 3 3 3 2
5 7 7 8 8 7 8 8 9 11 10 11 10 10 9 8 8 7 7 6 6 6 8 8 8 8 8 8 9 7 7 6 5 3 2 1 1 1 2 2 3 4 3
5 6 6 7 6 7 7 7 8 9 10 11 11 10 10 11 8 8 8 8 7 5 5 7 9 9 10 10 9 12 11 10 8 6 5 3 1 0 1 2 3 4 3
4 5 6 5 5 5 5 6 6 7 8 10 11 11 9 10 9 9 8 8 7 6 7 8 6 9 10 11 11 14 11 14 12 10 8 6 4 2 1 1 2 3 3
3 4 5 5 5 5 5 5 5 6 7 8 9 10 10 9 8 9 9 8 8 7 7 8 6 7 8 10 10 12 12 15 15 13 11 9 7 5 3 1 1 2 2
5 5 5 4 5 5 4 4 4 5 6 7 6 9 9 8 8 9 9 9 9 9 7 5 5 4 5 7 9 12 12 14 15 15 13 11 10 8 6 4 3 3 3
5 5 4 4 4 4 4 4 4 5 6 7 7 8 9 10 8 9 9 9 9 9 11 8 4 4 5 7 6 10 11 12 13 17 16 14 12 11 9 8 7 6 5
4 4 4 4 3 3 3 3 3 4 5 6 7 7 8 8 9 9 8 10 9 10 10 11 7 5 7 6 6 8 8 11 11 15 17 16 14 13 12 11 10 9 8
4 4 4 4 4 3 3 3 3 3 4 4 4 5 6 6 7 7 8 8 8 9 9 9 7 5 4 4 5 6 8 8 10 10 14 16 16 16 15 14 14 12 11
3 4 5 5 5 5 5 4 4 4 3 3 3 4 4 4 5 5 5 6 6 7 7 7 6 5 4 3 4 6 6 7 7 8 10 11 14 17 18 18 17 16 15
4 5 6 6 6 6 5 5 5 4 4 4 4 3 2 2 4 3 3 3 4 4 5 5 5 5 5 4 5 4 6 5 6 6 7 8 9 11 13 18 20 20 19
3 4 6 6 6 6 3 3 6 6 6 5 4 3 3 3 3 4 3 3 4 3 3 4 4 5 5 6 5 5 4 4 5 4 6 6 6 8 9 11 14 20 22
2 2 3 3 5 3 2 6 9 7 7 6 5 4 3 2 3 4 6 7 6 4 4 3 3 3 3 4 5 5 5 4 4 2 3 5 5 7 7 9 9 14 18
4 3 3 3 2 1 1 5 7 10 7 6 6 5 5 4 2 3 3 4 3 4 4 5 4 2 1 2 3 3 3 3 2 2 3 4 4 5 5 7 9 15 18
5 5 5 5 4 3 4 3 6 7 6 6 5 4 4 4 3 2 5 4 4 3 4 6 6 4 3 2 3 3 3 3 3 4 5 3 3 3 4 5 5 9 13
6 6 6 7 7 7 8 6 5 4 4 4 3 2 0 3 2 3 5 4 4 2 2 3 5 6 6 6 8 6 4 4 3 2 4 3 3 2 3 2 1 2 5
Wind_Direction
193 179 186 182 193 177 175 185 194 162 174 146 124 129 100 81 151 92 104 90 46 7 215 180 162 145 166 171 171 181 181 176 174 172 170 166 164 165 166 160 145 124 97
197 187 194 188 192 188 185 192 190 187 199 179 164 112 44 70 93 112 98 121 101 71 73 121 140 137 125 146 156 165 181 194 195 194 190 186 185 188 199 210 214 196 128
199 198 198 192 192 191 192 199 185 206 200 183 180 167 123 73 62 116 110 120 128 107 87 80 87 106 104 104 117 134 155 185 201 206 205 203 198 202 212 227 239 245 250
205 201 201 201 197 194 198 195 208 202 192 195 185 173 165 142 170 100 153 150 134 128 108 82 72 73 85 82 92 117 126 142 173 196 203 211 213 217 225 235 243 250 252
212 205 206 205 197 202 206 207 208 210 202 195 190 192 199 178 168 203 179 144 131 156 129 110 97 71 59 56 68 112 128 138 147 165 186 210 223 231 239 243 248 247 251
222 219 210 213 205 207 213 218 212 216 214 204 209 204 212 214 216 222 217 207 207 173 163 161 175 120 85 54 53 79 106 111 147 177 207 233 242 248 250 252 252 249 251
226 227 224 219 215 218 220 222 217 211 211 209 210 217 218 227 231 212 227 228 217 199 216 197 217 210 153 127 84 59 62 83 95 98 79 51 323 292 278 275 257 248 250
226 230 230 225 221 224 227 223 214 215 210 209 216 222 229 217 224 227 222 231 235 202 229 217 202 199 208 189 115 85 50 66 89 91 71 53 18 339 320 296 267 262 258
229 232 237 233 230 227 226 223 216 215 211 213 222 219 229 230 208 213 222 223 232 228 226 226 221 206 196 206 178 141 91 47 55 70 65 50 32 21 12 354 304 274 262
231 233 236 235 233 231 230 224 219 220 216 211 213 227 238 246 217 213 214 228 230 229 230 218 227 222 207 212 191 125 142 80 353 337 10 28 28 26 13 4 356 329 272
234 233 233 232 234 232 232 227 219 220 221 219 211 207 215 226 236 238 237 232 223 228 229 225 219 223 217 216 215 186 175 207 226 251 284 326 359 15 19 18 6 352 326
232 229 226 226 228 229 231 228 224 223 227 229 224 218 215 216 220 223 233 241 244 234 220 221 225 222 220 223 219 178 195 206 209 213 221 241 332 1 6 1 358 352 344
215 211 213 218 220 225 227 225 226 227 227 231 230 229 229 232 230 224 228 236 243 249 233 225 223 221 219 222 217 193 207 207 207 206 206 210 218 345 2 357 356 352 352
212 200 199 203 206 213 216 217 228 229 232 232 235 236 237 236 233 228 228 229 238 246 243 241 217 219 220 220 218 193 211 201 205 206 207 210 212 218 280 350 357 354 354
185 185 181 179 181 191 204 205 219 223 230 235 238 239 239 240 235 234 231 230 233 242 243 242 226 219 218 224 199 208 223 196 199 204 206 209 211 215 223 253 309 335 346
172 172 173 169 168 173 188 197 214 222 229 233 237 241 239 239 237 235 232 233 232 239 250 243 232 229 212 222 209 224 228 179 195 204 207 210 213 216 221 231 248 264 283
173 171 168 174 173 177 182 188 212 213 227 234 234 237 238 237 235 231 230 230 230 231 242 247 226 235 225 232 204 223 227 213 211 203 207 211 214 218 223 229 237 244 254
179 180 169 181 174 183 192 200 207 214 226 237 240 242 243 238 236 234 229 230 230 231 237 247 236 221 233 242 240 226 223 225 230 195 202 212 216 221 225 230 234 238 244
192 193 195 198 196 203 204 208 211 216 222 233 241 248 251 247 243 238 235 236 234 234 231 239 238 219 221 227 237 238 231 230 234 207 203 216 220 224 228 232 234 236 239
228 230 224 223 218 218 221 217 218 219 218 224 233 242 250 256 260 249 242 241 239 236 229 232 235 220 212 208 222 228 228 221 229 226 219 220 221 222 229 232 234 235 236
259 248 239 234 228 230 231 229 224 227 223 220 223 226 232 356 1 329 299 271 244 235 230 228 230 222 209 194 213 219 230 226 232 228 230 224 222 227 225 229 232 233 232
285 263 250 241 235 233 180 233 252 229 227 223 222 218 187 199 191 219 270 310 313 276 253 239 238 235 226 212 205 203 213 220 230 210 230 239 232 240 241 242 220 218 223
344 303 278 263 251 235 169 221 238 246 235 233 230 214 207 219 234 229 199 212 230 233 260 275 258 246 240 212 198 201 208 218 229 186 212 245 231 245 255 253 228 219 222
17 2 348 332 305 326 279 248 229 237 233 227 228 231 227 225 227 283 260 247 248 222 222 243 257 260 252 207 201 205 203 213 230 207 200 242 241 249 264 267 238 231 232
30 26 21 12 4 20 13 301 244 230 229 226 225 236 255 255 106 284 272 266 261 247 211 251 295 309 337 278 259 224 206 209 224 214 196 230 252 257 264 260 248 233 239
38 39 37 29 28 28 24 6 296 238 229 218 216 215 84 323 46 260 265 276 281 286 263 220 227 225 233 216 216 238 240 240 248 238 188 206 249 256 272 241 271 279 251
Height
1552 1552 1554 1554 1556 1557 1557 1558 1560 1561 1561 1561 1561 1561 1562 1561 1561 1560 1560 1558 1558 1559 1559 1560 1560 1561 1561 1562 1562 1563 1563 1564 1565 1565 1565 1566 1567 1567 1568 1568 1568 1567 1567
1550 1551 1553 1553 1555 1556 1557 1558 1559 1560 1561 1561 1561 1561 1560 1560 1560 1560 1559 1559 1558 1558 1559 1559 1560 1560 1560 1561 1561 1562 1562 1563 1564 1564 1565 1565 1566 1566 1567 1567 1567 1567 1566
1549 1550 1552 1553 1554 1555 1557 1558 1559 1559 1560 1560 1560 1560 1560 1559 1559 1560 1559 1559 1559 1558 1558 1559 1559 1559 1559 1560 1560 1561 1561 1562 1562 1563 1563 1564 1564 1565 1565 1566 1566 1566 1565
1548 1548 1549 1551 1552 1554 1555 1556 1557 1558 1559 1560 1560 1560 1560 1559 1559 1559 1559 1559 1559 1559 1558 1558 1558 1559 1559 1559 1559 1559 1560 1560 1561 1562 1562 1562 1563 1563 1563 1564 1564 1564 1564
1546 1547 1547 1549 1550 1552 1553 1555 1556 1557 1558 1558 1559 1559 1560 1559 1559 1559 1560 1560 1559 1559 1559 1558 1558 1558 1558 1558 1558 1558 1559 1559 1559 1560 1560 1561 1561 1561 1562 1562 1562 1562 1562
1543 1544 1545 1546 1548 1549 1551 1553 1554 1555 1556 1557 1558 1558 1558 1559 1559 1559 1559 1559 1559 1559 1559 1558 1559 1558 1557 1557 1558 1558 1558 1558 1558 1558 1559 1559 1559 1559 1560 1560 1560 1560 1560
1539 1541 1542 1544 1545 1546 1548 1550 1551 1552 1553 1555 1556 1556 1557 1557 1558 1557 1558 1558 1559 1558 1557 1557 1558 1558 1558 1557 1557 1557 1557 1557 1557 1557 1557 1557 1558 1558 1558 1558 1558 1558 1558
1536 1538 1539 1540 1542 1543 1544 1545 1546 1548 1549 1551 1553 1554 1554 1555 1553 1555 1555 1556 1557 1557 1557 1557 1557 1556 1557 1557 1556 1556 1556 1557 1557 1557 1557 1557 1556 1556 1556 1556 1556 1556 1556
1533 1534 1536 1537 1538 1539 1540 1541 1542 1544 1545 1547 1549 1550 1551 1551 1552 1553 1553 1553 1554 1555 1555 1556 1556 1556 1555 1556 1556 1555 1556 1556 1556 1556 1556 1556 1556 1555 1555 1555 1555 1555 1555
1530 1531 1532 1533 1534 1535 1536 1537 1538 1539 1541 1542 1543 1545 1547 1548 1549 1549 1550 1550 1551 1552 1553 1553 1553 1554 1554 1554 1554 1554 1554 1554 1555 1555 1555 1555 1555 1554 1554 1554 1554 1553 1553
1526 1528 1528 1529 1530 1531 1532 1533 1534 1535 1536 1537 1538 1540 1542 1543 1545 1546 1547 1548 1548 1549 1550 1550 1551 1552 1552 1552 1552 1552 1553 1553 1553 1553 1554 1554 1553 1553 1553 1552 1552 1552 1552
1523 1524 1525 1526 1527 1528 1529 1530 1530 1531 1532 1533 1534 1535 1537 1538 1539 1541 1542 1544 1545 1546 1546 1547 1548 1548 1549 1550 1550 1550 1551 1551 1552 1552 1552 1552 1552 1552 1551 1551 1550 1550 1550
1522 1522 1523 1524 1525 1525 1526 1526 1527 1528 1528 1529 1530 1531 1532 1533 1535 1537 1538 1540 1541 1543 1543 1544 1544 1545 1546 1547 1548 1548 1549 1549 1550 1550 1550 1550 1550 1550 1550 1549 1549 1548 1548
1521 1521 1522 1522 1523 1523 1523 1524 1525 1525 1525 1526 1526 1527 1528 1529 1530 1532 1534 1536 1537 1538 1539 1541 1541 1541 1542 1544 1545 1545 1546 1547 1547 1548 1548 1548 1548 1548 1548 1547 1547 1546 1546
1519 1520 1521 1521 1521 1521 1521 1522 1522 1522 1523 1523 1523 1524 1524 1525 1526 1527 1529 1531 1533 1533 1534 1536 1538 1538 1539 1540 1541 1542 1544 1544 1545 1545 1546 1546 1546 1546 1546 1546 1545 1544 1544
1519 1519 1520 1520 1520 1520 1520 1520 1520 1520 1520 1520 1520 1520 1521 1521 1522 1523 1524 1526 1527 1529 1530 1531 1533 1534 1535 1536 1537 1539 1541 1541 1542 1543 1543 1544 1544 1544 1544 1544 1543 1542 1542
1518 1519 1519 1520 1520 1520 1519 1519 1519 1518 1518 1518 1517 1517 1517 1517 1518 1519 1520 1521 1522 1524 1524 1526 1528 1529 1531 1532 1534 1535 1537 1538 1539 1539 1540 1541 1541 1542 1542 1541 1541 1540 1540
1518 1518 1519 1519 1519 1519 1519 1519 1518 1517 1516 1516 1515 1515 1514 1514 1514 1515 1516 1516 1517 1519 1520 1521 1522 1524 1526 1528 1529 1531 1532 1534 1535 1536 1537 1538 1538 1539 1539 1539 1539 1538 1538
1517 1517 1518 1518 1518 1518 1518 1517 1517 1517 1516 1515 1514 1513 1513 1512 1512 1512 1512 1512 1513 1514 1515 1516 1517 1519 1520 1522 1524 1526 1528 1529 1530 1531 1532 1534 1534 1535 1535 1536 1536 1536 1535
1516 1516 1517 1517 1517 1517 1517 1517 1516 1516 1515 1514 1513 1512 1511 1511 1511 1510 1510 1510 1510 1510 1511 1512 1513 1514 1515 1517 1519 1521 1523 1524 1525 1527 1528 1529 1530 1531 1531 1532 1532 1532 1532
1513 1514 1514 1515 1515 1515 1515 1515 1515 1515 1515 1514 1513 1512 1511 1510 1509 1509 1508 1508 1508 1508 1508 1509 1509 1510 1511 1512 1514 1516 1517 1519 1520 1522 1523 1524 1525 1526 1527 1527 1528 1528 1529
1510 1511 1511 1511 1511 1512 1511 1511 1512 1513 1513 1513 1513 1512 1511 1509 1509 1508 1508 1507 1507 1507 1507 1507 1507 1507 1508 1508 1509 1511 1512 1514 1515 1517 1518 1520 1521 1521 1523 1523 1523 1524 1524
1507 1507 1507 1507 1507 1508 1508 1508 1509 1510 1511 1511 1511 1511 1510 1509 1509 1509 1508 1507 1507 1506 1506 1506 1506 1505 1505 1505 1506 1507 1507 1508 1510 1512 1513 1515 1516 1516 1518 1518 1518 1519 1519
1505 1504 1504 1504 1504 1504 1504 1505 1506 1507 1508 1508 1509 1509 1510 1510 1508 1509 1509 1508 1508 1507 1506 1505 1506 1505 1505 1504 1504 1505 1504 1505 1506 1507 1508 1509 1510 1511 1513 1513 1513 1513 1513
1504 1503 1502 1502 1501 1501 1501 1502 1502 1504 1505 1505 1506 1507 1508 1508 1507 1507 1507 1508 1507 1506 1505 1505 1504 1504 1503 1503 1503 1503 1503 1504 1504 1504 1505 1505 1506 1507 1507 1508 1508 1507 1507
1504 1503 1502 1501 1500 1499 1499 1499 1500 1501 1502 1502 1503 1504 1505 1505 1506 1506 1506 1507 1507 1506 1505 1504 1503 1503 1502 1502 1502 1502 1502 1502 1502 1502 1502 1502 1503 1503 1503 1503 1503 1503 1502